Location: Cucq
(50.4773°N, 1.6202°E)
Time: 02:01:04
(UTC+00:00)

Okean 1 Rocket - Pass Details

Date: 07 August 2020
Orbit: 607 x 634 km, 82.5° (Epoch: 25 September)

Event Time Altitude Azimuth Distance (km) Brightness Sun altitude
Exits shadow 02:38:11 23° 240° (WSW) 1,306 4.2 -14.7°
Maximum altitude 02:40:10 35° 288° (WNW) 1,000 3.9 -14.5°
Drops below altitude 10° 02:44:11 10° 355° (N) 1,980 6.3 -14.1°
Sets 02:46:35 0° 4° (N) 2,893 7.4 -13.8°
